,,PA_Meas_PMT16A,,PR_Meas_QMR101_102,,RH_Meas_QMH101,,SR_Meas_QMS101,,TA_Meas_QMH101,,GenWind,,GenWind,
time,status,PA,status,PR,status,RH,status,SR,status,TA,status,DirAvg,status,SpdAvg,
2010-02-04, 00:00:04,VALID,918.898,VALID,0,VALID,97.1757,VALID,0,VALID,20.5188,VALID,149,VALID,0.558594,
2010-02-04, 00:01:04,VALID,918.871,VALID,0,VALID,97.1681,VALID,0,VALID,20.4798,VALID,149,VALID,0.419531,
2010-02-04, 00:02:04,VALID,918.863,VALID,0,VALID,97.1833,VALID,0,VALID,20.5188,VALID,149,VALID,0.178125,
2010-02-04, 00:03:04,VALID,918.897,VALID,0,VALID,97.229,VALID,0,VALID,20.5188,VALID,149,VALID,0.127344,
2010-02-04, 00:04:04,VALID,918.874,VALID,0,VALID,97.229,VALID,0,VALID,20.5188,VALID,149,VALID,0.167969,
2010-02-04, 00:05:04,VALID,918.903,VALID,0,VALID,97.2138,VALID,0,VALID,20.4993,VALID,149,VALID,0.355078,
2010-02-04, 00:06:04,VALID,918.874,VALID,0,VALID,97.2062,VALID,0,VALID,20.4993,VALID,149,VALID,0.442578,
2010-02-04, 00:07:04,VALID,918.882,VALID,0,VALID,97.2367,VALID,0,VALID,20.5188,VALID,149,VALID,0.5375,
2010-02-04, 00:08:04,VALID,918.877,VALID,0,VALID,97.2062,VALID,0,VALID,20.4993,VALID,149,VALID,0.586719,
2010-02-04, 00:09:04,VALID,918.881,VALID,0,VALID,97.2214,VALID,0,VALID,20.4798,VALID,149,VALID,0.470313,
2010-02-04, 00:10:04,VALID,918.851,VALID,0,VALID,97.2062,VALID,0,VALID,20.4798,VALID,149,VALID,0.664844,
2010-02-04, 00:11:04,VALID,918.841,VALID,0,VALID,97.2443,VALID,0,VALID,20.4603,VALID,149,VALID,0.554688,
2010-02-04, 00:12:04,VALID,918.799,VALID,0,VALID,97.229,VALID,0,VALID,20.4603,VALID,149,VALID,0.4125,
2010-02-04, 00:13:04,VALID,918.831,VALID,0,VALID,97.2443,VALID,0,VALID,20.4603,VALID,149,VALID,0.644922,
2010-02-04, 00:14:04,VALID,918.813,VALID,0,VALID,97.229,VALID,0,VALID,20.4993,VALID,149,VALID,0.482422,
2010-02-04, 00:15:04,VALID,918.817,VALID,0,VALID,97.2214,VALID,0,VALID,20.4798,VALID,149,VALID,0.45625,
2010-02-04, 00:16:04,VALID,918.831,VALID,0,VALID,97.2824,VALID,0,VALID,20.4993,VALID,149,VALID,0.598828,
2010-02-04, 00:17:04,VALID,918.769,VALID,0,VALID,97.2519,VALID,0,VALID,20.5188,VALID,149,VALID,0.702734,
2010-02-04, 00:18:04,VALID,918.775,VALID,0,VALID,97.2748,VALID,0,VALID,20.4977,VALID,149,VALID,0.642969,
2010-02-04, 00:19:04,VALID,918.76,VALID,0,VALID,97.2519,VALID,0,VALID,20.5188,VALID,149,VALID,0.615625,
2010-02-04, 00:20:04,VALID,918.743,VALID,0,VALID,97.2824,VALID,0,VALID,20.5383,VALID,149,VALID,0.485156,
2010-02-04, 00:21:04,VALID,918.733,VALID,0,VALID,97.29,VALID,0,VALID,20.5367,VALID,149,VALID,0.425781,
2010-02-04, 00:22:04,VALID,918.738,VALID,0,VALID,97.3053,VALID,0,VALID,20.5578,VALID,149,VALID,0.113281,
2010-02-04, 00:23:04,VALID,918.725,VALID,0,VALID,97.29,VALID,0,VALID,20.5367,VALID,149,VALID,0,
2010-02-04, 00:24:04,VALID,918.743,VALID,0,VALID,97.2519,VALID,0,VALID,20.5578,VALID,149,VALID,0,
2010-02-04, 00:25:04,VALID,918.72,VALID,0,VALID,97.2748,VALID,0,VALID,20.5773,VALID,149,VALID,0.230078,
2010-02-04, 00:26:04,VALID,918.71,VALID,0,VALID,97.2977,VALID,0,VALID,20.5968,VALID,149,VALID,0.310547,
2010-02-04, 00:27:04,VALID,918.693,VALID,0,VALID,97.3053,VALID,0,VALID,20.6163,VALID,149,VALID,0.211328,
2010-02-04, 00:28:04,VALID,918.671,VALID,0,VALID,97.229,VALID,0,VALID,20.5952,VALID,149,VALID,0.158594,
2010-02-04, 00:29:04,VALID,918.681,VALID,0,VALID,97.2062,VALID,0,VALID,20.5773,VALID,149,VALID,0,
2010-02-04, 00:30:04,VALID,918.658,VALID,0,VALID,97.1986,VALID,0,VALID,20.5773,VALID,149,VALID,0,
2010-02-04, 00:31:04,VALID,918.634,VALID,0,VALID,97.2062,VALID,0,VALID,20.5789,VALID,149,VALID,0,
2010-02-04, 00:32:04,VALID,918.643,VALID,0,VALID,97.1604,VALID,0,VALID,20.5578,VALID,149,VALID,0,
2010-02-04, 00:33:04,VALID,918.637,VALID,0,VALID,97.1452,VALID,0,VALID,20.5188,VALID,149,VALID,0.0328125,
2010-02-04, 00:34:04,VALID,918.632,VALID,0,VALID,97.1528,VALID,0,VALID,20.5188,VALID,149,VALID,0.371875,
2010-02-04, 00:35:04,VALID,918.599,VALID,0,VALID,97.1376,VALID,0,VALID,20.4993,VALID,149,VALID,0.490234,
2010-02-04, 00:36:04,VALID,918.573,VALID,0,VALID,97.1452,VALID,0,VALID,20.4782,VALID,149,VALID,0.8,
2010-02-04, 00:37:04,VALID,918.573,VALID,0,VALID,97.1604,VALID,0.107441,VALID,20.4782,VALID,149,VALID,0.886719,
2010-02-04, 00:38:04,VALID,918.538,VALID,0,VALID,97.1528,VALID,0.214882,VALID,20.4782,VALID,149,VALID,1.11563,
2010-02-04, 00:39:04,VALID,918.511,VALID,0,VALID,97.1757,VALID,0.107441,VALID,20.4782,VALID,149,VALID,1.01289,
2010-02-04, 00:40:04,VALID,918.489,VALID,0,VALID,97.1604,VALID,0.107441,VALID,20.4782,VALID,149,VALID,0.659375,
2010-02-04, 00:41:04,VALID,918.5,VALID,0,VALID,97.1909,VALID,0.107441,VALID,20.4782,VALID,149,VALID,0.610937,
2010-02-04, 00:42:04,VALID,918.448,VALID,0,VALID,97.1833,VALID,0.107441,VALID,20.4572,VALID,133,VALID,0.559766,
2010-02-04, 00:43:04,VALID,918.448,VALID,0,VALID,97.1909,VALID,0.107441,VALID,20.4782,VALID,133,VALID,0.469531,
2010-02-04, 00:44:04,VALID,918.415,VALID,0,VALID,97.1757,VALID,0.107441,VALID,20.4782,VALID,134,VALID,0.588281,
2010-02-04, 00:45:04,VALID,918.403,VALID,0,VALID,97.1833,VALID,0.107441,VALID,20.4572,VALID,133,VALID,0.496875,
2010-02-04, 00:46:04,VALID,918.372,VALID,0,VALID,97.2062,VALID,0.107441,VALID,20.4782,VALID,133,VALID,0.735156,
2010-02-04, 00:47:04,VALID,918.346,VALID,0,VALID,97.2062,VALID,0.107441,VALID,20.4587,VALID,133,VALID,0.661328,
2010-02-04, 00:48:04,VALID,918.315,VALID,0,VALID,97.2138,VALID,0.107441,VALID,20.4782,VALID,133,VALID,0.476953,
2010-02-04, 00:49:04,VALID,918.284,VALID,0,VALID,97.2062,VALID,0.107441,VALID,20.4782,VALID,134,VALID,1.03633,
2010-02-04, 00:50:04,VALID,918.241,VALID,0,VALID,97.1909,VALID,0.107441,VALID,20.4782,VALID,134,VALID,0.873828,
2010-02-04, 00:51:04,VALID,918.224,VALID,0,VALID,97.2062,VALID,0.107441,VALID,20.4587,VALID,133,VALID,1.25937,
2010-02-04, 00:52:04,VALID,918.193,VALID,0,VALID,97.2367,VALID,0,VALID,20.4813,VALID,132,VALID,0.908203,
2010-02-04, 00:53:04,VALID,918.206,VALID,0,VALID,97.229,VALID,0,VALID,20.4408,VALID,131,VALID,0.682031,
2010-02-04, 00:54:04,VALID,918.162,VALID,0,VALID,97.2443,VALID,0,VALID,20.4408,VALID,131,VALID,0.769141,
2010-02-04, 00:55:04,VALID,918.159,VALID,0,VALID,97.2138,VALID,0,VALID,20.4018,VALID,131,VALID,0.823438,
2010-02-04, 00:56:04,VALID,918.181,VALID,0,VALID,97.2062,VALID,0,VALID,20.4018,VALID,131,VALID,0.811328,
2010-02-04, 00:57:04,VALID,918.152,VALID,0,VALID,97.2138,VALID,0,VALID,20.3417,VALID,131,VALID,0.521484,
2010-02-04, 00:58:04,VALID,918.14,VALID,0,VALID,97.1986,VALID,0,VALID,20.3222,VALID,131,VALID,0.740234,
2010-02-04, 00:59:04,VALID,918.146,VALID,0,VALID,97.229,VALID,0,VALID,20.2832,VALID,131,VALID,0.680078,
2010-02-04, 01:00:04,VALID,918.101,VALID,0,VALID,97.2443,VALID,0.107441,VALID,20.2832,VALID,131,VALID,0.748828,
2010-02-04, 01:01:04,VALID,918.107,VALID,0,VALID,97.2672,VALID,0,VALID,20.2848,VALID,131,VALID,0.771875,
2010-02-04, 01:02:04,VALID,918.088,VALID,0,VALID,97.2672,VALID,0,VALID,20.2637,VALID,131,VALID,0.803516,
2010-02-04, 01:03:04,VALID,918.1,VALID,0,VALID,97.3053,VALID,0,VALID,20.2653,VALID,131,VALID,0.780078,
2010-02-04, 01:04:04,VALID,918.098,VALID,0,VALID,97.3205,VALID,0.107441,VALID,20.2848,VALID,131,VALID,0.673828,
2010-02-04, 01:05:04,VALID,918.108,VALID,0,VALID,97.3281,VALID,0.107441,VALID,20.2653,VALID,131,VALID,0.662109,
2010-02-04, 01:06:04,VALID,918.107,VALID,0,VALID,97.3358,VALID,0.107441,VALID,20.2848,VALID,131,VALID,0.411719,
2010-02-04, 01:07:04,VALID,918.145,VALID,0,VALID,97.3358,VALID,0.107441,VALID,20.2653,VALID,131,VALID,0,
2010-02-04, 01:08:04,VALID,918.138,VALID,0,VALID,97.351,VALID,0,VALID,20.2653,VALID,131,VALID,0.282813,
2010-02-04, 01:09:04,VALID,918.165,VALID,0,VALID,97.3434,VALID,0,VALID,20.2653,VALID,131,VALID,0.0757812,
2010-02-04, 01:10:04,VALID,918.13,VALID,0,VALID,97.351,VALID,0,VALID,20.2653,VALID,131,VALID,0,
2010-02-04, 01:11:04,VALID,918.147,VALID,0,VALID,97.3358,VALID,0,VALID,20.2653,VALID,131,VALID,0,
2010-02-04, 01:12:04,VALID,918.142,VALID,0,VALID,97.351,VALID,0,VALID,20.2653,VALID,131,VALID,0.264062,
2010-02-04, 01:13:04,VALID,918.147,VALID,0,VALID,97.351,VALID,0,VALID,20.2247,VALID,131,VALID,0,
2010-02-04, 01:14:04,VALID,918.112,VALID,0,VALID,97.3434,VALID,0,VALID,20.2458,VALID,131,VALID,0,
2010-02-04, 01:15:04,VALID,918.127,VALID,0,VALID,97.3358,VALID,0,VALID,20.2263,VALID,131,VALID,0,
2010-02-04, 01:16:04,VALID,918.076,VALID,0,VALID,97.3129,VALID,0.107441,VALID,20.2068,VALID,131,VALID,0,
2010-02-04, 01:17:04,VALID,918.074,VALID,0,VALID,97.3053,VALID,0.107441,VALID,20.1873,VALID,131,VALID,0.00351562,
2010-02-04, 01:18:04,VALID,918.049,VALID,0,VALID,97.3053,VALID,0.107441,VALID,20.1288,VALID,131,VALID,0.367969,
2010-02-04, 01:19:04,VALID,918.063,VALID,0,VALID,97.2595,VALID,0,VALID,20.0703,VALID,131,VALID,0.532031,
2010-02-04, 01:20:04,VALID,918.064,VALID,0,VALID,97.229,VALID,0,VALID,19.9923,VALID,131,VALID,0.373047,
2010-02-04, 01:21:04,VALID,918.05,VALID,0,VALID,97.2443,VALID,0,VALID,19.9533,VALID,131,VALID,0.380469,
2010-02-04, 01:22:04,VALID,918.076,VALID,0,VALID,97.3586,VALID,0,VALID,19.9533,VALID,131,VALID,0.4125,
2010-02-04, 01:23:04,VALID,918.057,VALID,0,VALID,97.3891,VALID,0,VALID,19.9728,VALID,131,VALID,0.371094,
2010-02-04, 01:24:04,VALID,918.1,VALID,0,VALID,97.3434,VALID,0,VALID,19.9338,VALID,131,VALID,0.222266,
2010-02-04, 01:25:04,VALID,918.073,VALID,0,VALID,97.29,VALID,0,VALID,19.9143,VALID,131,VALID,0.191406,
2010-02-04, 01:26:04,VALID,918.074,VALID,0,VALID,97.229,VALID,0,VALID,19.8168,VALID,131,VALID,0.337891,
2010-02-04, 01:27:04,VALID,918.084,VALID,0,VALID,97.2748,VALID,0,VALID,19.7763,VALID,131,VALID,0.573828,
2010-02-04, 01:28:04,VALID,918.086,VALID,0,VALID,97.3891,VALID,0,VALID,19.7973,VALID,131,VALID,0.391797,
2010-02-04, 01:29:04,VALID,918.07,VALID,0,VALID,97.4654,VALID,0,VALID,19.8363,VALID,131,VALID,0.246094,
2010-02-04, 01:30:04,VALID,918.052,VALID,0,VALID,97.473,VALID,0,VALID,19.8558,VALID,131,VALID,0,
2010-02-04, 01:31:04,VALID,918.028,VALID,0,VALID,97.5111,VALID,0,VALID,19.8948,VALID,131,VALID,0.450391,
2010-02-04, 01:32:04,VALID,918.053,VALID,0,VALID,97.4959,VALID,0,VALID,19.9143,VALID,131,VALID,0.362891,
2010-02-04, 01:33:04,VALID,918.038,VALID,0,VALID,97.4959,VALID,0.107441,VALID,19.9338,VALID,131,VALID,0.373047,
2010-02-04, 01:34:04,VALID,918.005,VALID,0,VALID,97.5187,VALID,0,VALID,19.9533,VALID,131,VALID,0.0675781,
2010-02-04, 01:35:04,VALID,918.02,VALID,0,VALID,97.5264,VALID,0,VALID,19.9728,VALID,131,VALID,0.382031,
2010-02-04, 01:36:04,VALID,917.997,VALID,0,VALID,97.534,VALID,0,VALID,20.0313,VALID,131,VALID,0,
2010-02-04, 01:37:04,VALID,917.974,VALID,0,VALID,97.4959,VALID,0.107441,VALID,20.0103,VALID,131,VALID,0,
2010-02-04, 01:38:04,VALID,917.988,VALID,0,VALID,97.4425,VALID,0.107441,VALID,19.9518,VALID,131,VALID,0.382422,
2010-02-04, 01:39:04,VALID,917.966,VALID,0,VALID,97.4196,VALID,0.107441,VALID,19.9323,VALID,131,VALID,0.39375,
2010-02-04, 01:40:04,VALID,917.925,VALID,0,VALID,97.4425,VALID,0.214882,VALID,19.8933,VALID,131,VALID,0.352734,
2010-02-04, 01:41:04,VALID,917.944,VALID,0,VALID,97.412,VALID,0.107441,VALID,19.8753,VALID,131,VALID,0.291406,
2010-02-04, 01:42:04,VALID,917.905,VALID,0,VALID,97.3968,VALID,0.214882,VALID,19.8348,VALID,131,VALID,0.245703,
2010-02-04, 01:43:04,VALID,917.94,VALID,0,VALID,97.4273,VALID,0.107441,VALID,19.7958,VALID,131,VALID,0.200391,
2010-02-04, 01:44:04,VALID,917.885,VALID,0,VALID,97.4044,VALID,0.107441,VALID,19.7778,VALID,131,VALID,0.266016,
2010-02-04, 01:45:04,VALID,917.852,VALID,0,VALID,97.3968,VALID,0.107441,VALID,19.7178,VALID,131,VALID,0.191797,
2010-02-04, 01:46:04,VALID,917.855,VALID,0,VALID,97.4273,VALID,0.107441,VALID,19.7178,VALID,131,VALID,0,
2010-02-04, 01:47:04,VALID,917.817,VALID,0,VALID,97.4044,VALID,0.107441,VALID,19.6983,VALID,131,VALID,0,
2010-02-04, 01:48:04,VALID,917.809,VALID,0,VALID,97.2672,VALID,0.107441,VALID,19.6203,VALID,131,VALID,0.00117188,
2010-02-04, 01:49:04,VALID,917.753,VALID,0,VALID,97.2672,VALID,0.107441,VALID,19.5033,VALID,131,VALID,0.414453,
2010-02-04, 01:50:04,VALID,917.718,VALID,0,VALID,97.2214,VALID,0.107441,VALID,19.4449,VALID,131,VALID,0.714063,
2010-02-04, 01:51:04,VALID,917.748,VALID,0,VALID,97.3434,VALID,0.107441,VALID,19.4449,VALID,131,VALID,0.783984,
2010-02-04, 01:52:04,VALID,917.721,VALID,0,VALID,97.4425,VALID,0,VALID,19.4658,VALID,131,VALID,0.75,
2010-02-04, 01:53:04,VALID,917.688,VALID,0,VALID,97.4349,VALID,0.107441,VALID,19.4449,VALID,131,VALID,0.869922,
2010-02-04, 01:54:04,VALID,917.689,VALID,0,VALID,97.6255,VALID,0.107441,VALID,19.5813,VALID,131,VALID,1.03945,
2010-02-04, 01:55:04,VALID,917.664,VALID,0,VALID,97.6102,VALID,0,VALID,19.6413,VALID,131,VALID,1.1125,
2010-02-04, 01:56:04,VALID,917.657,VALID,0,VALID,97.5645,VALID,0,VALID,19.5813,VALID,131,VALID,1.12422,
2010-02-04, 01:57:04,VALID,917.674,VALID,0,VALID,97.5264,VALID,0,VALID,19.5828,VALID,131,VALID,0.979688,
2010-02-04, 01:58:04,VALID,917.636,VALID,0,VALID,97.5416,VALID,0,VALID,19.5828,VALID,131,VALID,0.806641,
2010-02-04, 01:59:04,VALID,917.602,VALID,0,VALID,97.4882,VALID,0,VALID,19.5438,VALID,131,VALID,0.8,
2010-02-04, 02:00:04,VALID,917.595,VALID,0,VALID,97.5111,VALID,0,VALID,19.5243,VALID,131,VALID,0.909375,
2010-02-04, 02:01:04,VALID,917.592,VALID,0,VALID,97.5187,VALID,0.107441,VALID,19.4839,VALID,131,VALID,0.505078,
2010-02-04, 02:02:04,VALID,917.566,VALID,0,VALID,97.534,VALID,0,VALID,19.4853,VALID,131,VALID,1.09492,
2010-02-04, 02:03:04,VALID,917.559,VALID,0,VALID,97.5645,VALID,0.107441,VALID,19.5048,VALID,131,VALID,0.795313,
2010-02-04, 02:04:04,VALID,917.507,VALID,0,VALID,97.6255,VALID,0,VALID,19.5438,VALID,131,VALID,0.789844,
2010-02-04, 02:05:04,VALID,917.55,VALID,0,VALID,97.6331,VALID,0,VALID,19.6218,VALID,131,VALID,1.01758,
2010-02-04, 02:06:04,VALID,917.5,VALID,0,VALID,97.6255,VALID,0,VALID,19.6608,VALID,131,VALID,0.946875,
2010-02-04, 02:07:04,VALID,917.481,VALID,0,VALID,97.6255,VALID,0.107441,VALID,19.6998,VALID,131,VALID,0.689844,
2010-02-04, 02:08:04,VALID,917.462,VALID,0,VALID,97.6255,VALID,0,VALID,19.7388,VALID,131,VALID,1.20742,
2010-02-04, 02:09:04,VALID,917.454,VALID,0,VALID,97.6255,VALID,0.107441,VALID,19.7778,VALID,131,VALID,0.999219,
2010-02-04, 02:10:04,VALID,917.469,VALID,0,VALID,97.6407,VALID,0,VALID,19.8168,VALID,131,VALID,0.628516,
2010-02-04, 02:11:04,VALID,917.435,VALID,0,VALID,97.6102,VALID,0.107441,VALID,19.8543,VALID,131,VALID,0.644922,
2010-02-04, 02:12:04,VALID,917.429,VALID,0,VALID,97.6407,VALID,0.107441,VALID,19.8543,VALID,131,VALID,0.564062,
2010-02-04, 02:13:04,VALID,917.436,VALID,0,VALID,97.6255,VALID,0.107441,VALID,19.8738,VALID,131,VALID,0.952344,
2010-02-04, 02:14:04,VALID,917.43,VALID,0,VALID,97.6331,VALID,0.107441,VALID,19.9338,VALID,131,VALID,0.971094,
2010-02-04, 02:15:04,VALID,917.447,VALID,0,VALID,97.6255,VALID,0,VALID,19.9323,VALID,131,VALID,0.512109,
2010-02-04, 02:16:04,VALID,917.417,VALID,0,VALID,97.6178,VALID,0,VALID,19.9713,VALID,131,VALID,0.585156,
2010-02-04, 02:17:04,VALID,917.414,VALID,0,VALID,97.6102,VALID,0.107441,VALID,19.9518,VALID,131,VALID,0.638672,
2010-02-04, 02:18:04,VALID,917.411,VALID,0,VALID,97.6255,VALID,0.107441,VALID,19.8933,VALID,131,VALID,0.675,
2010-02-04, 02:19:04,VALID,917.388,VALID,0,VALID,97.6331,VALID,0.107441,VALID,19.8948,VALID,131,VALID,0.753906,
2010-02-04, 02:20:04,VALID,917.383,VALID,0,VALID,97.595,VALID,0,VALID,19.8558,VALID,131,VALID,0.666797,
2010-02-04, 02:21:05,VALID,917.351,VALID,0,VALID,97.6102,VALID,0.107441,VALID,19.8558,VALID,131,VALID,0.666797,
2010-02-04, 02:22:05,VALID,917.323,VALID,0,VALID,97.6407,VALID,0,VALID,19.8168,VALID,131,VALID,0.721484,
2010-02-04, 02:23:05,VALID,917.292,VALID,0,VALID,97.6026,VALID,0.107441,VALID,19.7568,VALID,131,VALID,0.533203,
2010-02-04, 02:24:05,VALID,917.302,VALID,0,VALID,97.6102,VALID,0,VALID,19.7373,VALID,131,VALID,0.563281,
2010-02-04, 02:25:05,VALID,917.285,VALID,0,VALID,97.6026,VALID,0,VALID,19.6983,VALID,131,VALID,0.626953,
2010-02-04, 02:26:05,VALID,917.323,VALID,0,VALID,97.6331,VALID,0.107441,VALID,19.6998,VALID,131,VALID,0.666016,
2010-02-04, 02:27:05,VALID,917.29,VALID,0,VALID,97.6102,VALID,0.107441,VALID,19.6803,VALID,131,VALID,0.712109,
2010-02-04, 02:28:05,VALID,917.283,VALID,0,VALID,97.6102,VALID,0.107441,VALID,19.6413,VALID,131,VALID,0.719531,
2010-02-04, 02:29:05,VALID,917.268,VALID,0,VALID,97.6102,VALID,0.107441,VALID,19.6023,VALID,131,VALID,0.691406,
2010-02-04, 02:30:05,VALID,917.251,VALID,0,VALID,97.6407,VALID,0.107441,VALID,19.5813,VALID,131,VALID,0.690234,
2010-02-04, 02:31:05,VALID,917.279,VALID,0,VALID,97.6102,VALID,0.107441,VALID,19.5828,VALID,131,VALID,0.770312,
2010-02-04, 02:32:05,VALID,917.287,VALID,0,VALID,97.6178,VALID,0.107441,VALID,19.5423,VALID,131,VALID,0.782031,
2010-02-04, 02:33:05,VALID,917.308,VALID,0,VALID,97.656,VALID,0.107441,VALID,19.5423,VALID,131,VALID,0.883203,
2010-02-04, 02:34:05,VALID,917.332,VALID,0,VALID,97.656,VALID,0.107441,VALID,19.5633,VALID,131,VALID,0.671875,
2010-02-04, 02:35:05,VALID,917.308,VALID,0,VALID,97.656,VALID,0,VALID,19.6023,VALID,131,VALID,0.693359,
2010-02-04, 02:36:05,VALID,917.361,VALID,0,VALID,97.6788,VALID,0.107441,VALID,19.6008,VALID,131,VALID,0.6875,
2010-02-04, 02:37:05,VALID,917.319,VALID,0,VALID,97.6483,VALID,0,VALID,19.6203,VALID,131,VALID,0.810547,
2010-02-04, 02:38:05,VALID,917.284,VALID,0,VALID,97.6712,VALID,0.107441,VALID,19.6803,VALID,131,VALID,0.841797,
2010-02-04, 02:39:05,VALID,917.305,VALID,0,VALID,97.6712,VALID,0.107441,VALID,19.6998,VALID,131,VALID,0.744922,
2010-02-04, 02:40:05,VALID,917.274,VALID,0,VALID,97.6941,VALID,0.107441,VALID,19.7193,VALID,131,VALID,0.935938,
2010-02-04, 02:41:05,VALID,917.233,VALID,0,VALID,97.6865,VALID,0.107441,VALID,19.7193,VALID,147,VALID,0.983594,
2010-02-04, 02:42:05,VALID,917.226,VALID,0,VALID,97.6865,VALID,0,VALID,19.7583,VALID,170,VALID,0.569922,
2010-02-04, 02:43:05,VALID,917.216,VALID,0,VALID,97.6788,VALID,0,VALID,19.7583,VALID,170,VALID,0.700391,
2010-02-04, 02:44:05,VALID,917.211,VALID,0,VALID,97.6636,VALID,0,VALID,19.7373,VALID,170,VALID,0.276172,
2010-02-04, 02:45:05,VALID,917.249,VALID,0,VALID,97.656,VALID,0.107441,VALID,19.7388,VALID,170,VALID,0.352734,
2010-02-04, 02:46:05,VALID,917.246,VALID,0,VALID,97.6712,VALID,0,VALID,19.7388,VALID,170,VALID,0.417969,
2010-02-04, 02:47:05,VALID,917.241,VALID,0,VALID,97.6712,VALID,0,VALID,19.6998,VALID,170,VALID,0.852734,
2010-02-04, 02:48:05,VALID,917.25,VALID,0,VALID,97.6941,VALID,0,VALID,19.6998,VALID,170,VALID,0.748047,
2010-02-04, 02:49:05,VALID,917.251,VALID,0,VALID,97.6636,VALID,0,VALID,19.6998,VALID,170,VALID,0.775391,
2010-02-04, 02:50:05,VALID,917.253,VALID,0,VALID,97.6865,VALID,0,VALID,19.6803,VALID,170,VALID,0.8,
2010-02-04, 02:51:05,VALID,917.238,VALID,0,VALID,97.7017,VALID,0,VALID,19.6608,VALID,170,VALID,0.794922,
2010-02-04, 02:52:05,VALID,917.218,VALID,0,VALID,97.6788,VALID,0,VALID,19.6233,VALID,170,VALID,0.687891,
2010-02-04, 02:53:05,VALID,917.197,VALID,0,VALID,97.6636,VALID,0,VALID,19.6038,VALID,170,VALID,0.943359,
2010-02-04, 02:54:05,VALID,917.174,VALID,0,VALID,97.6865,VALID,0,VALID,19.6023,VALID,170,VALID,1.21758,
2010-02-04, 02:55:05,VALID,917.147,VALID,0,VALID,97.6941,VALID,0,VALID,19.6218,VALID,170,VALID,0.839844,
2010-02-04, 02:56:05,VALID,917.162,VALID,0,VALID,97.6941,VALID,0,VALID,19.6428,VALID,170,VALID,0.776172,
2010-02-04, 02:57:05,VALID,917.13,VALID,0,VALID,97.6941,VALID,0,VALID,19.6413,VALID,167,VALID,0.659766,
2010-02-04, 02:58:05,VALID,917.159,VALID,0,VALID,97.7169,VALID,0,VALID,19.6818,VALID,147,VALID,0.695703,
2010-02-04, 02:59:05,VALID,917.212,VALID,0,VALID,97.7169,VALID,0,VALID,19.7013,VALID,150,VALID,1.26953,
2010-02-04, 03:00:05,VALID,917.207,VALID,0,VALID,97.7017,VALID,0,VALID,19.6803,VALID,141,VALID,0.582031,
2010-02-04, 03:01:05,VALID,917.196,VALID,0,VALID,97.6941,VALID,0,VALID,19.7208,VALID,141,VALID,0.998438,
2010-02-04, 03:02:05,VALID,917.231,VALID,0,VALID,97.7169,VALID,0,VALID,19.7403,VALID,138,VALID,1.18477,
2010-02-04, 03:03:05,VALID,917.227,VALID,0,VALID,97.7169,VALID,0,VALID,19.7403,VALID,135,VALID,0.811328,
2010-02-04, 03:04:05,VALID,917.245,VALID,0,VALID,97.7093,VALID,0,VALID,19.7208,VALID,118,VALID,0.729297,
2010-02-04, 03:05:05,VALID,917.229,VALID,0,VALID,97.7093,VALID,0,VALID,19.7403,VALID,118,VALID,0.844922,
2010-02-04, 03:06:05,VALID,917.212,VALID,0,VALID,97.7246,VALID,0,VALID,19.7208,VALID,118,VALID,0.986328,
2010-02-04, 03:07:05,VALID,917.215,VALID,0,VALID,97.7093,VALID,0.107441,VALID,19.6788,VALID,118,VALID,1.28008,
2010-02-04, 03:08:05,VALID,917.202,VALID,0,VALID,97.7169,VALID,0.107441,VALID,19.6998,VALID,117,VALID,1.06836,
2010-02-04, 03:09:05,VALID,917.216,VALID,0,VALID,97.7169,VALID,0,VALID,19.6593,VALID,117,VALID,0.939062,
2010-02-04, 03:10:05,VALID,917.214,VALID,0,VALID,97.7246,VALID,0.107441,VALID,19.6593,VALID,95,VALID,0.833203,
2010-02-04, 03:11:05,VALID,917.195,VALID,0,VALID,97.7169,VALID,0,VALID,19.6398,VALID,95,VALID,1.14141,
2010-02-04, 03:12:05,VALID,917.254,VALID,0,VALID,97.7017,VALID,0,VALID,19.6008,VALID,95,VALID,1.30117,
2010-02-04, 03:13:05,VALID,917.263,VALID,0,VALID,97.7093,VALID,0.107441,VALID,19.5813,VALID,120,VALID,1.32617,
2010-02-04, 03:14:05,VALID,917.26,VALID,0,VALID,97.7169,VALID,0,VALID,19.6218,VALID,128,VALID,1.44492,
2010-02-04, 03:15:05,VALID,917.262,VALID,0,VALID,97.7322,VALID,0,VALID,19.6023,VALID,128,VALID,1.00977,
2010-02-04, 03:16:05,VALID,917.251,VALID,0,VALID,97.7169,VALID,0.107441,VALID,19.6413,VALID,137,VALID,1.18086,
2010-02-04, 03:17:05,VALID,917.286,VALID,0,VALID,97.7398,VALID,0,VALID,19.6983,VALID,146,VALID,1.25195,
2010-02-04, 03:18:05,VALID,917.271,VALID,0,VALID,97.7322,VALID,0.107441,VALID,19.7388,VALID,140,VALID,0.888281,
2010-02-04, 03:19:05,VALID,917.251,VALID,0,VALID,97.7474,VALID,0.107441,VALID,19.7388,VALID,140,VALID,0.773438,
2010-02-04, 03:20:05,VALID,917.259,VALID,0,VALID,97.7322,VALID,0.107441,VALID,19.7193,VALID,103,VALID,1.01094,
2010-02-04, 03:21:05,VALID,917.262,VALID,0,VALID,97.7093,VALID,0.107441,VALID,19.6983,VALID,100,VALID,0.949219,
2010-02-04, 03:22:05,VALID,917.299,VALID,0,VALID,97.7398,VALID,0,VALID,19.6998,VALID,115,VALID,1.39531,
2010-02-04, 03:23:05,VALID,917.299,VALID,0,VALID,97.7322,VALID,0,VALID,19.6998,VALID,115,VALID,1.1832,
2010-02-04, 03:24:05,VALID,917.269,VALID,0,VALID,97.7398,VALID,0,VALID,19.7208,VALID,115,VALID,1.25586,
2010-02-04, 03:25:05,VALID,917.308,VALID,0,VALID,97.7398,VALID,0,VALID,19.7193,VALID,90,VALID,0.920703,
2010-02-04, 03:26:05,VALID,917.305,VALID,0,VALID,97.7398,VALID,0,VALID,19.7598,VALID,114,VALID,0.885938,
2010-02-04, 03:27:05,VALID,917.329,VALID,0,VALID,97.7474,VALID,0,VALID,19.7598,VALID,114,VALID,0.978516,
2010-02-04, 03:28:05,VALID,917.295,VALID,0,VALID,97.7627,VALID,0,VALID,19.7583,VALID,145,VALID,0.974219,
2010-02-04, 03:29:05,VALID,917.302,VALID,0,VALID,97.7322,VALID,0,VALID,19.7973,VALID,145,VALID,0.896094,
2010-02-04, 03:30:05,VALID,917.265,VALID,0,VALID,97.7703,VALID,0,VALID,19.8168,VALID,145,VALID,1.02031,
2010-02-04, 03:31:05,VALID,917.218,VALID,0,VALID,97.7398,VALID,0,VALID,19.8573,VALID,149,VALID,0.768359,
2010-02-04, 03:32:05,VALID,917.198,VALID,0,VALID,97.7322,VALID,0,VALID,19.8168,VALID,150,VALID,0.939453,
2010-02-04, 03:33:05,VALID,917.171,VALID,0,VALID,97.7322,VALID,0,VALID,19.8378,VALID,150,VALID,1.14219,
2010-02-04, 03:34:05,VALID,917.192,VALID,0,VALID,97.7398,VALID,0,VALID,19.8378,VALID,150,VALID,1.03789,
2010-02-04, 03:35:05,VALID,917.164,VALID,0,VALID,97.7627,VALID,0,VALID,19.8168,VALID,150,VALID,0.789063,
2010-02-04, 03:36:05,VALID,917.174,VALID,0,VALID,97.7322,VALID,0,VALID,19.8183,VALID,150,VALID,0.971875,
2010-02-04, 03:37:05,VALID,917.211,VALID,0,VALID,97.7474,VALID,0.107441,VALID,19.7958,VALID,150,VALID,0.673437,
2010-02-04, 03:38:05,VALID,917.213,VALID,0,VALID,97.7398,VALID,0,VALID,19.8168,VALID,150,VALID,0.653125,
2010-02-04, 03:39:05,VALID,917.239,VALID,0,VALID,97.7322,VALID,0,VALID,19.7973,VALID,150,VALID,0.294531,
2010-02-04, 03:40:05,VALID,917.246,VALID,0,VALID,97.7398,VALID,0,VALID,19.7778,VALID,150,VALID,0.591016,